Wind_Speed
7 8 8 9 10 9 9 10 12 14 15 17 18 18 17 16 16 17 17 17 16 16 16 18 18 18 18 19 20 21 23 24 25 26 26 27 28 30 30 30 30 31 32 33
8 8 7 8 9 9 8 9 11 12 14 15 17 18 17 17 17 17 17 17 17 16 16 17 18 19 19 18 20 22 23 24 26 26 27 29 30 29 30 31 31 32 33 34
7 7 7 8 9 9 9 9 9 10 11 13 13 14 14 15 15 16 16 17 18 18 18 17 17 18 19 20 21 22 23 25 26 27 28 29 30 30 31 32 32 32 32 33
7 7 8 8 8 9 9 9 8 9 10 10 10 11 11 11 12 14 15 17 18 19 20 19 18 18 19 19 20 21 23 25 26 27 27 28 29 30 32 32 32 32 32 33
7 8 8 8 7 8 9 9 8 8 9 10 11 11 10 11 12 13 14 16 18 19 20 20 20 19 20 20 21 22 23 24 25 26 27 28 29 30 31 31 32 32 32 32
8 7 7 7 7 8 8 8 9 9 9 10 11 12 11 11 12 13 13 14 16 18 19 19 20 20 21 21 22 23 24 24 25 26 27 29 30 30 30 31 32 32 32 31
8 7 7 7 7 8 8 8 9 10 10 11 12 13 12 12 13 14 14 15 15 16 18 20 21 22 23 23 24 24 24 24 25 26 27 28 29 29 29 29 31 32 32 32
8 7 7 7 7 8 8 9 10 12 12 12 13 14 14 14 14 15 15 16 16 17 18 19 21 22 23 24 24 24 25 25 26 26 27 28 28 28 28 29 30 30 31 31
9 9 8 8 8 9 10 11 12 13 15 15 15 15 15 14 15 16 16 17 17 17 18 19 20 21 22 23 24 24 25 26 26 26 27 27 27 28 28 28 29 30 30 31
10 10 10 10 11 11 12 13 13 15 16 17 16 16 16 15 16 16 16 17 17 17 17 18 19 20 21 22 24 24 25 25 25 26 26 27 28 28 28 28 29 30 30 31
12 13 13 13 13 13 13 14 15 16 17 18 19 17 17 17 17 17 17 17 17 17 17 18 19 20 21 22 23 23 23 24 25 26 26 27 28 28 29 29 30 30 30 32
14 15 15 15 15 15 16 16 16 17 18 19 20 19 17 17 17 18 18 18 18 18 18 19 20 20 20 20 21 23 24 24 25 25 26 27 28 28 28 29 30 30 31 31
16 17 17 17 17 17 17 17 18 19 19 20 20 19 18 18 18 18 19 19 19 20 20 20 20 20 21 21 22 24 24 24 25 26 27 28 29 29 29 30 30 31 32 32
19 19 20 20 20 20 20 20 20 21 21 21 20 19 18 19 19 20 20 20 20 20 21 21 21 21 22 22 23 24 24 25 25 26 27 28 28 29 30 30 31 32 32 33
22 22 22 22 22 22 22 21 21 22 22 22 21 21 20 20 21 21 21 21 22 21 21 21 22 22 23 23 24 24 25 26 26 27 28 28 29 29 30 31 32 32 33 33
23 24 24 24 24 24 23 22 23 23 23 23 22 22 21 21 21 22 22 22 22 22 23 23 23 24 24 25 25 25 26 27 27 28 29 30 30 31 31 32 32 33 33 34
24 25 26 26 26 26 25 23 23 24 23 24 23 23 23 23 23 23 24 24 24 23 23 24 24 25 25 26 26 27 28 28 28 29 30 31 32 33 33 34 34 35 35 36
26 26 27 28 27 28 25 24 24 24 24 24 24 24 24 24 24 25 24 24 25 25 25 25 26 26 26 27 27 27 28 29 30 31 31 32 32 33 34 35 36 37 37 37
28 28 29 29 30 29 27 26 26 27 27 26 26 26 26 26 26 25 25 26 26 26 26 26 26 26 26 27 28 29 29 30 30 31 31 32 33 34 35 36 36 37 37 37
31 30 31 31 32 31 29 29 29 29 29 27 27 27 27 27 27 26 26 27 27 27 27 27 27 27 28 28 29 30 30 30 31 32 33 33 34 34 35 35 36 36 37 37
32 32 32 33 33 32 30 30 30 31 30 29 29 28 28 28 27 27 27 27 28 28 28 28 29 29 29 30 30 30 31 31 32 33 33 34 35 35 36 36 36 37 37 38
34 35 34 34 35 33 32 32 32 32 32 32 31 31 31 30 30 29 29 29 30 30 30 30 30 30 31 31 31 31 31 31 32 33 34 35 35 36 36 36 36 37 37 38
37 37 37 37 36 34 34 35 35 35 35 34 34 33 33 33 32 32 32 32 31 32 32 32 32 32 32 32 32 32 32 32 32 33 34 35 36 36 36 36 36 37 38 39
38 38 39 39 37 37 37 37 38 38 37 37 36 36 35 35 34 34 34 34 33 33 33 33 33 33 33 33 33 33 33 33 33 34 35 35 35 36 36 36 37 38 39 40
40 40 40 40 39 39 39 38 38 39 39 39 38 38 38 37 36 36 36 35 35 34 34 34 34 34 34 34 34 35 35 35 35 35 36 36 36 36 37 38 38 39 40 41
41 42 42 41 40 41 40 39 40 40 40 40 40 40 39 38 37 37 37 37 36 35 35 35 35 35 35 35 36 36 36 36 36 37 37 38 37 38 38 38 39 40 41 42
Wind_Direction
261 257 246 246 249 256 262 263 259 256 255 257 256 257 263 267 265 267 267 266 265 267 269 272 275 277 273 271 271 268 268 271 273 273 273 275 277 278 279 281 282 281 279 278
255 255 251 252 252 252 261 269 268 264 261 260 258 260 264 266 265 266 268 266 266 266 269 272 273 276 274 274 274 274 274 275 275 276 276 277 280 280 280 282 282 282 280 278
256 256 258 258 255 254 262 271 272 270 270 268 269 265 266 269 265 266 268 270 270 269 270 272 274 275 279 280 280 278 276 276 277 277 279 280 281 282 283 283 282 283 282 279
262 261 261 266 266 259 266 273 277 275 276 273 273 273 270 273 272 273 274 274 274 274 274 275 277 280 281 283 284 282 280 279 279 280 280 281 283 284 284 284 285 285 285 282
266 267 265 266 269 267 275 274 273 274 275 274 273 275 276 278 277 279 281 280 278 276 277 277 278 281 283 287 289 287 284 283 283 283 284 283 284 285 285 285 284 285 285 284
264 264 262 264 264 268 277 272 267 274 279 270 274 278 280 282 285 288 292 292 288 286 282 280 280 282 284 285 289 290 288 286 285 285 286 287 286 286 286 286 285 285 284 283
266 259 255 260 262 267 271 272 272 277 281 277 275 279 285 289 291 294 295 297 296 294 290 285 283 284 286 286 287 289 288 286 285 286 287 288 289 288 288 289 288 286 285 283
262 249 246 250 263 269 271 274 275 279 284 286 283 283 289 291 291 293 294 295 294 293 292 290 288 287 287 288 287 288 287 285 284 285 288 288 289 289 291 292 291 288 287 285
262 249 247 251 263 270 268 272 275 281 288 289 288 286 286 290 292 293 293 294 294 295 295 294 292 291 291 290 290 291 291 290 288 287 288 289 289 290 292 294 295 292 290 289
265 256 254 263 267 271 272 275 277 280 289 291 290 289 288 290 293 294 293 294 294 294 296 296 295 294 294 294 294 293 294 292 290 290 291 291 291 291 292 295 297 294 291 290
266 261 260 266 270 274 276 283 283 282 285 292 295 295 296 295 294 295 293 294 294 294 296 298 298 296 295 296 296 296 295 295 294 294 293 293 293 294 293 294 295 294 292 292
268 267 267 271 273 276 279 282 283 285 287 291 293 296 298 296 295 295 296 295 293 292 294 296 298 297 297 296 297 296 295 294 295 295 293 292 292 294 294 294 293 294 295 295
269 268 270 272 273 275 278 281 281 283 286 289 291 294 297 297 296 295 295 296 294 293 293 295 296 296 296 297 298 298 296 294 296 297 295 294 294 295 296 295 293 294 295 295
267 267 270 274 277 278 278 279 281 282 284 287 291 293 294 293 292 294 295 295 296 296 295 295 297 298 297 298 300 300 298 295 297 298 297 296 297 297 297 297 296 295 295 296
268 267 269 271 273 274 276 278 280 282 284 287 290 290 292 292 293 294 295 297 297 297 297 297 297 298 298 300 302 303 301 298 298 299 297 297 298 297 297 297 297 296 296 297
271 269 267 269 272 273 273 275 277 279 283 287 289 289 291 292 292 292 293 295 296 297 298 298 297 297 299 300 302 303 303 300 300 301 299 297 297 297 297 297 297 297 297 296
271 271 269 268 270 271 272 274 276 279 281 284 286 289 290 291 292 292 292 292 294 296 298 298 298 298 300 300 301 302 302 301 300 300 300 299 299 298 298 298 297 297 296 297
271 271 271 270 270 270 274 274 275 278 280 283 286 288 289 290 290 290 291 293 294 295 297 298 298 299 300 300 300 300 300 300 300 300 300 299 298 297 297 297 297 297 297 298
269 270 271 271 271 271 271 274 276 278 279 283 285 287 288 289 290 289 290 291 292 295 296 297 298 298 300 301 301 300 299 299 299 300 300 300 299 298 297 298 298 298 298 298
268 269 270 271 271 272 274 275 277 279 280 282 284 286 288 289 288 288 288 289 290 292 294 294 295 296 298 301 303 303 302 302 301 300 300 299 299 298 298 298 299 299 300 300
268 269 269 271 271 271 276 277 278 279 282 283 284 285 285 287 288 288 287 287 288 290 290 290 291 294 297 299 301 302 303 302 302 302 302 302 301 300 299 298 299 300 300 301
267 268 269 270 270 273 275 276 278 280 280 281 282 282 283 285 286 285 284 285 286 287 288 289 290 292 295 298 300 301 303 303 302 302 303 303 302 301 301 300 300 301 302 302
265 267 268 269 271 273 274 274 275 276 278 279 280 280 280 282 283 283 282 283 284 285 285 287 288 291 293 296 298 300 302 303 303 303 303 304 304 303 303 302 301 301 302 303
266 266 267 267 268 270 272 273 274 275 277 277 278 278 279 281 282 283 282 282 282 283 284 285 287 289 291 294 297 299 300 301 302 304 305 305 305 305 304 303 303 303 303 304
266 266 266 266 268 270 271 272 273 274 275 275 276 278 279 280 281 282 282 282 283 283 284 284 286 288 290 292 294 296 297 299 300 302 305 305 306 306 305 305 304 303 303 303
264 264 264 266 268 269 270 270 270 272 273 274 275 276 278 279 280 281 281 282 282 282 282 284 285 287 289 291 292 294 295 297 299 301 303 305 305 305 305 304 303 303 303 303
Height
5753 5755 5754 5755 5756 5757 5756 5756 5756 5757 5757 5757 5757 5757 5757 5757 5757 5756 5756 5756 5756 5755 5754 5753 5752 5751 5749 5748 5749 5749 5748 5748 5747 5746 5746 5745 5744 5743 5742 5740 5738 5737 5735 5734
5752 5752 5753 5752 5753 5753 5754 5754 5754 5753 5753 5753 5753 5753 5753 5753 5752 5752 5752 5752 5751 5751 5750 5749 5748 5747 5746 5745 5745 5744 5743 5742 5742 5741 5740 5739 5738 5736 5735 5733 5731 5729 5727 5725
5749 5751 5750 5750 5750 5751 5751 5751 5751 5751 5750 5749 5749 5749 5749 5749 5749 5748 5748 5747 5747 5746 5745 5745 5744 5743 5742 5741 5740 5739 5737 5736 5735 5734 5733 5732 5730 5728 5727 5725 5723 5721 5718 5717
5746 5747 5747 5748 5748 5748 5749 5748 5748 5747 5747 5747 5747 5746 5746 5745 5745 5744 5744 5743 5742 5742 5741 5740 5740 5739 5737 5736 5734 5733 5731 5730 5729 5727 5726 5724 5723 5721 5719 5717 5715 5713 5710 5708
5744 5745 5745 5746 5747 5747 5746 5746 5746 5745 5745 5745 5744 5743 5744 5742 5741 5741 5740 5739 5738 5737 5736 5736 5735 5734 5733 5731 5730 5728 5726 5724 5722 5720 5719 5717 5715 5713 5712 5709 5707 5705 5702 5700
5742 5742 5743 5744 5744 5744 5744 5744 5743 5743 5742 5742 5741 5741 5741 5740 5739 5738 5737 5735 5734 5733 5732 5731 5729 5728 5727 5726 5724 5722 5720 5718 5716 5714 5712 5710 5708 5706 5704 5702 5699 5697 5694 5692
5739 5740 5741 5741 5742 5742 5742 5742 5742 5740 5739 5739 5738 5737 5738 5737 5736 5735 5733 5731 5730 5728 5727 5726 5724 5723 5722 5720 5718 5716 5714 5712 5709 5707 5705 5703 5701 5698 5696 5694 5692 5689 5687 5685
5737 5738 5739 5739 5739 5740 5739 5739 5739 5738 5737 5737 5735 5734 5736 5734 5732 5730 5729 5727 5726 5724 5722 5721 5719 5718 5716 5714 5712 5710 5708 5705 5703 5701 5698 5696 5694 5691 5689 5687 5684 5682 5680 5678
5734 5736 5737 5737 5737 5737 5736 5736 5736 5735 5734 5733 5732 5731 5731 5730 5728 5727 5725 5723 5722 5720 5718 5716 5714 5712 5710 5708 5706 5704 5701 5699 5697 5694 5692 5689 5687 5685 5682 5680 5677 5675 5672 5670
5732 5733 5734 5734 5734 5734 5734 5733 5733 5731 5729 5728 5728 5727 5727 5726 5724 5723 5721 5719 5717 5715 5713 5711 5709 5706 5704 5702 5700 5697 5695 5693 5690 5688 5686 5683 5680 5678 5676 5673 5671 5668 5665 5663
5729 5730 5731 5731 5731 5731 5731 5730 5728 5727 5726 5724 5722 5725 5724 5722 5720 5718 5716 5714 5713 5711 5709 5706 5704 5701 5699 5696 5693 5691 5689 5687 5684 5682 5679 5677 5674 5671 5669 5666 5664 5661 5658 5655
5726 5726 5727 5727 5727 5726 5726 5725 5725 5724 5722 5720 5718 5722 5719 5717 5714 5713 5711 5709 5707 5706 5704 5701 5699 5696 5694 5691 5688 5685 5683 5681 5678 5676 5673 5671 5668 5665 5662 5659 5657 5654 5651 5648
5722 5722 5722 5722 5724 5723 5721 5721 5720 5719 5717 5715 5714 5717 5714 5712 5710 5708 5706 5704 5702 5700 5699 5696 5694 5691 5688 5686 5683 5680 5677 5675 5672 5669 5667 5664 5661 5658 5656 5653 5650 5647 5644 5641
5716 5716 5717 5718 5717 5716 5716 5716 5714 5713 5711 5710 5710 5710 5710 5706 5705 5703 5701 5699 5697 5695 5693 5691 5688 5685 5683 5680 5677 5674 5671 5668 5666 5663 5660 5657 5654 5652 5649 5646 5642 5639 5636 5633
5710 5710 5710 5711 5710 5710 5709 5709 5708 5707 5706 5705 5705 5704 5704 5701 5699 5698 5695 5693 5691 5689 5687 5685 5682 5680 5677 5674 5671 5668 5665 5662 5659 5656 5654 5651 5648 5645 5642 5638 5635 5632 5628 5625
5703 5703 5704 5704 5703 5702 5702 5703 5702 5701 5700 5699 5698 5698 5697 5695 5693 5691 5690 5688 5686 5684 5682 5679 5677 5674 5671 5668 5665 5662 5659 5656 5653 5650 5647 5644 5641 5638 5634 5631 5627 5624 5620 5617
5697 5696 5696 5697 5696 5695 5696 5697 5696 5695 5695 5693 5691 5692 5690 5689 5687 5685 5683 5681 5679 5678 5676 5673 5670 5668 5665 5662 5659 5656 5652 5649 5646 5643 5640 5636 5633 5630 5627 5623 5619 5616 5612 5608
5689 5689 5688 5688 5689 5687 5692 5690 5689 5688 5688 5687 5685 5684 5683 5682 5680 5678 5676 5674 5672 5671 5668 5666 5664 5661 5658 5655 5652 5649 5646 5642 5639 5636 5632 5629 5625 5622 5618 5615 5611 5607 5603 5599
5681 5681 5680 5680 5679 5679 5684 5684 5682 5681 5681 5680 5678 5677 5675 5673 5671 5670 5669 5667 5665 5663 5661 5659 5657 5654 5651 5648 5645 5642 5638 5635 5631 5628 5624 5621 5617 5613 5610 5606 5602 5598 5594 5590
5672 5672 5673 5671 5670 5671 5677 5676 5674 5673 5672 5673 5670 5668 5667 5665 5663 5664 5661 5659 5657 5656 5654 5651 5649 5646 5644 5641 5637 5634 5631 5627 5623 5620 5616 5612 5608 5604 5601 5597 5593 5589 5585 5580
5663 5662 5663 5662 5661 5663 5667 5666 5665 5664 5665 5663 5661 5659 5658 5657 5656 5655 5653 5651 5649 5647 5645 5643 5640 5638 5636 5633 5629 5626 5623 5619 5615 5611 5607 5603 5599 5595 5591 5588 5583 5579 5575 5571
5653 5653 5653 5652 5652 5657 5657 5656 5655 5655 5654 5653 5651 5650 5649 5648 5647 5645 5644 5642 5640 5638 5636 5634 5632 5630 5627 5624 5621 5618 5614 5611 5606 5602 5598 5594 5590 5586 5582 5578 5574 5569 5565 5561
5642 5643 5643 5643 5646 5647 5646 5645 5645 5644 5643 5642 5641 5640 5639 5638 5637 5636 5634 5632 5631 5629 5627 5625 5623 5621 5618 5615 5612 5609 5605 5601 5597 5593 5589 5585 5581 5576 5572 5568 5564 5560 5555 5551
5631 5631 5631 5631 5634 5635 5634 5634 5633 5633 5632 5631 5630 5630 5629 5627 5626 5625 5624 5622 5621 5619 5617 5615 5613 5611 5609 5606 5603 5599 5596 5592 5588 5584 5580 5576 5571 5567 5562 5558 5554 5550 5545 5541
5619 5619 5618 5619 5622 5622 5623 5623 5622 5621 5620 5620 5619 5618 5617 5616 5615 5614 5613 5612 5610 5609 5607 5605 5603 5600 5598 5595 5593 5589 5586 5582 5579 5575 5571 5566 5562 5557 5552 5548 5544 5540 5535 5530
5607 5607 5607 5609 5611 5610 5611 5611 5610 5609 5609 5608 5607 5607 5606 5605 5604 5603 5601 5600 5599 5598 5596 5594 5592 5590 5587 5585 5582 5579 5576 5572 5569 5565 5561 5556 5552 5547 5543 5538 5534 5529 5525 5519